Regional Weather Roundup
Issued by NWS Mobile, AL

Home | Current Version | Previous Version | Text Only | Print | Product List | Glossary On
Versions: 1 2 3 4 5 6 7 8 9 10 11 12 13 14 15 16 17 18 19 20 21 22 23 24 25 26 27 28 29 30 31 32 33 34 35 36 37 38 39 40 41 42 43 44 45 46 47 48 49 50
000
ASUS44 KMOB 271112
RWRMOB
REGIONAL WEATHER ROUNDUP
NATIONAL WEATHER SERVICE MOBILE AL
600 AM CDT FRI MAR 27 2015

NOTE: "FAIR" INDICATES FEW OR NO CLOUDS BELOW 12,000 FEET WITH NO
      SIGNIFICANT WEATHER AND/OR OBSTRUCTIONS TO VISIBILITY.

  * THESE STATIONS ARE PART OF THE UNIVERSITY OF SOUTH ALABAMA
    MESONET AND ARE NOT UNDER NWS OR FAA QUALITY CONTROL.

ALZ061>064-271200-
COASTAL ALABAMA

CITY           SKY/WX    TMP DP  RH WIND       PRES   REMARKS
MOBILE REG APT CLOUDY    51  47  86 NW15G26   29.92R FOG
BROOKLEY FIELD CLOUDY    54  49  83 NW16      29.91R
USA CAMPUS*      N/A     52  48  87 W6        29.91R
DOG RIVER*     NOT AVBL


CITY           SKY/WX    TMP DP  RH WIND       PRES   REMARKS
MOUNT VERNON*    N/A     50  45  81 CALM      29.94R
SARALAND*      NOT AVBL
BAY MINETTE*   NOT AVBL
LOXLEY*          N/A     52  50  93 N14       29.89R
ROBERTSDALE*     N/A     54  52  94 NE6       29.88R
FAIRHOPE*        N/A     52  50  93 N14       29.88R
ELBERTA*         N/A     55  52  88 N13       29.86R
FOLEY*         NOT AVBL
GRAND BAY*       N/A     52  48  87 N8        29.91R
DAUPHIN ISLND* NOT AVBL
BON SCOUR NWR* NOT AVBL
GULF SHORES    CLOUDY    56  52  88 N9        29.88R

$$

ALZ051>060-271200-
INTERIOR SOUTHWEST AND SOUTH CENTRAL ALABAMA

CITY           SKY/WX    TMP DP  RH WIND       PRES   REMARKS
GREENVILLE     CLOUDY    50  47  89 NW10G16   29.87R
EVERGREEN      CLOUDY    51  48  89 NW15G23   29.87S
CASTLEBERRY*   NOT AVBL
ATMORE*          N/A     50  50 100 NW10      29.91R
DIXIE*           N/A     54  52  94 CALM      29.84R
ANDALUSIA/OPP  CLOUDY    59  50  72 N13       29.84R
ANDALUSIA*       N/A     54  50  87 NW6       29.84R
FLORALA APT    CLOUDY    56  51  84 N7        29.85R
FLORALA*         N/A     57  54  88 W6        29.81R

$$

FLZ001>006-271200-
WESTERN FLORIDA PANHANDLE

CITY           SKY/WX    TMP DP  RH WIND       PRES   REMARKS
PENSACOLA      CLOUDY    56  52  86 NW14      29.86R
NAS PENSACOLA  CLOUDY    57  53  86 NW10      29.87R
MILTON         CLOUDY    55  51  86 N12       29.86R
WHTNG S FIELD  CLOUDY    57  51  80 NW14      29.86R


CITY           SKY/WX    TMP DP  RH WIND       PRES   REMARKS
WALNUT HILL*   NOT AVBL
JAY*             N/A     52  50  93 NW16      29.89R
DUKE FIELD     CLOUDY    58  55  89 NW13      29.83R
CRESTVIEW      CLOUDY    57  54  89 NW10      29.85R
VALPARAISO     CLOUDY    60  56  87 NW9       29.83R
DESTIN         CLOUDY    62  58  86 NW15      29.82R

$$

MSZ076-079-271200-
INTERIOR SOUTHEAST MISSISSIPPI

CITY           SKY/WX    TMP DP  RH WIND       PRES   REMARKS
LEAKESVILLE*   NOT AVBL
AGRICOLA*      NOT AVBL

$$

MARINE OBSERVATIONS

STATION/POSITION TIME  TEMP    WIND        PRES    WAVE
                       AIR SEA DIR/SP/G            HT/PER
                 (UTC) (F)     (DEG/KT/KT) (MB)    (FT/S)
PASCAGOULA       1000   55     350/ 14/ 20 1011.8R
PETIT BOIS ISLND 1000   58     350/ 19/ 24 1012.1R
GRAND BAY        0900   57     350/  9     1012.0S
KATRINA CUT      1000   58     360/ 22     1012.2S
CEDAR POINT      1000   56     350/ 15     1011.5R
E DAUPHIN ISLAND 1100   57     330/ 18/ 20 1012.0R
MIDDLE BAY LIGHT 1000          340/ 25     1010.2F
USCG MOBILE BAY  1000   55 68  340/ 12/ 18 1011.1R
STATE DOCKS      1000   55 64              1011.8R
MEAHER PARK      1000   55     340/ 11     1012.2R
WEEKS BAY        0945   57                   N/A
FORT MORGAN      1000   58     350/ 24/ 26 1010.5R
12 S ORANGE BCH  1050   60 68  330/ 17/ 21 1010.2R   4/ 6
PENSACOLA BAY    1000   60 71  360/  7/ 11 1010.4R
64 S DAUPHIN ISL 1050   64 72  330/ 19/ 23 1011.0R   3/ 4

$$

SELECTED LOCATIONS ACROSS THE REGION

CITY           SKY/WX    TMP DP  RH WIND       PRES   REMARKS
NEW ORLEANS    CLOUDY    54  45  71 N14       30.00R
GULFPORT       CLOUDY    53  46  77 N14G28    29.94R
PASCAGOULA AP  CLOUDY    53  48  83 N14G22    29.92R
PASCAGOULA*    NOT AVBL
HATTIESBURG    CLOUDY    50  44  80 NW6       29.98R
LAUREL         CLOUDY    48  39  71 N13       29.98R
MERIDIAN       CLOUDY    46  39  76 NW8       29.97R
JACKSON        CLEAR     43  40  89 N7        30.01R
MONTGOMERY     CLOUDY    50  45  81 NW16G24   29.88R
TROY           CLOUDY    55  49  80 NW10      29.84R
KINSTON*       NOT AVBL
GENEVA*          N/A     59  55  88 VRB14     29.84R
ASHFORD*         N/A     54  50  87 NW6       29.84R
DOTHAN         CLOUDY    59  56  89 NW17      29.83R
PANAMA CITY    CLOUDY    65  63  93 SW5       29.79S

$$




USA.gov is the U.S. government's official web portal to all federal, state and local government web resources and services.